Time,TemperatureF,DewpointF,PressureIn,WindDirection,WindDirectionDegrees,WindSpeedMPH,WindSpeedGustMPH,Humidity,HourlyPrecipIn,Conditions,Clouds,dailyrainin,SolarRadiationWatts/m^2,SoftwareType,DateUTC
2014-04-04 00:00:00,72.5,64.6,30.08,SSE,156,0.0,2.0,76,0.00,,,0.00,0.0,WUHU216DAVISVP2,2014-04-04 04:00:00,
2014-04-04 00:10:00,72.4,64.5,30.08,SSE,156,0.0,1.0,76,0.00,,,0.00,0.0,WUHU216DAVISVP2,2014-04-04 04:10:00,
2014-04-04 00:15:00,72.3,64.4,30.08,SSE,156,0.0,2.0,76,0.00,,,0.00,0.0,WUHU216DAVISVP2,2014-04-04 04:15:00,
2014-04-04 00:36:00,72.1,64.5,30.07,ESE,120,1.0,4.0,77,0.00,,,0.00,0.0,WUHU216DAVISVP2,2014-04-04 04:36:00,
2014-04-04 00:42:00,71.9,64.3,30.07,ESE,119,0.0,2.0,77,0.00,,,0.00,0.0,WUHU216DAVISVP2,2014-04-04 04:42:00,
2014-04-04 00:47:00,71.8,64.3,30.07,ESE,119,0.0,2.0,77,0.00,,,0.00,0.0,WUHU216DAVISVP2,2014-04-04 04:47:00,
2014-04-04 00:52:00,71.9,64.8,30.07,ESE,119,0.0,2.0,78,0.00,,,0.00,0.0,WUHU216DAVISVP2,2014-04-04 04:52:00,
2014-04-04 00:57:00,71.8,64.6,30.08,ESE,119,0.0,1.0,78,0.00,,,0.00,0.0,WUHU216DAVISVP2,2014-04-04 04:57:00,
2014-04-04 01:02:00,71.8,64.7,30.07,ESE,119,0.0,1.0,78,0.00,,,0.00,0.0,WUHU216DAVISVP2,2014-04-04 05:02:00,
2014-04-04 01:07:00,71.7,64.6,30.07,ESE,109,0.0,2.0,78,0.00,,,0.00,0.0,WUHU216DAVISVP2,2014-04-04 05:07:00,
2014-04-04 01:12:00,71.7,64.6,30.07,ESE,109,0.0,2.0,78,0.00,,,0.00,0.0,WUHU216DAVISVP2,2014-04-04 05:12:00,
2014-04-04 01:17:00,71.7,64.5,30.07,ESE,109,0.0,2.0,78,0.00,,,0.00,0.0,WUHU216DAVISVP2,2014-04-04 05:17:00,
2014-04-04 01:22:00,71.6,64.5,30.06,ESE,109,0.0,2.0,78,0.00,,,0.00,0.0,WUHU216DAVISVP2,2014-04-04 05:22:00,
2014-04-04 01:27:00,71.5,64.4,30.06,ESE,109,0.0,1.0,78,0.00,,,0.00,0.0,WUHU216DAVISVP2,2014-04-04 05:27:00,
2014-04-04 01:32:00,71.4,64.2,30.06,ESE,109,0.0,1.0,78,0.00,,,0.00,0.0,WUHU216DAVISVP2,2014-04-04 05:32:00,
2014-04-04 01:37:00,71.3,64.5,30.06,ESE,109,0.0,0.0,79,0.00,,,0.00,0.0,WUHU216DAVISVP2,2014-04-04 05:37:00,
2014-04-04 01:42:00,71.2,64.5,30.05,SSE,154,1.0,4.0,79,0.00,,,0.00,0.0,WUHU216DAVISVP2,2014-04-04 05:42:00,
2014-04-04 01:47:00,71.3,64.9,30.05,East,96,0.0,5.0,80,0.00,,,0.00,0.0,WUHU216DAVISVP2,2014-04-04 05:47:00,
2014-04-04 01:52:00,71.4,65.3,30.05,East,99,1.0,5.0,81,0.00,,,0.00,0.0,WUHU216DAVISVP2,2014-04-04 05:52:00,
2014-04-04 01:57:00,71.7,65.3,30.05,SE,127,1.0,5.0,80,0.00,,,0.00,0.0,WUHU216DAVISVP2,2014-04-04 05:57:00,
2014-04-04 02:02:00,71.9,65.5,30.04,SE,142,0.0,4.0,80,0.00,,,0.00,0.0,WUHU216DAVISVP2,2014-04-04 06:02:00,
2014-04-04 02:07:00,72.0,65.6,30.04,ESE,111,0.0,4.0,80,0.00,,,0.00,0.0,WUHU216DAVISVP2,2014-04-04 06:07:00,
2014-04-04 02:12:00,72.1,65.3,30.04,SSW,199,1.0,4.0,79,0.00,,,0.00,0.0,WUHU216DAVISVP2,2014-04-04 06:12:00,
2014-04-04 02:17:00,72.1,65.3,30.04,SE,125,0.0,2.0,79,0.00,,,0.00,0.0,WUHU216DAVISVP2,2014-04-04 06:17:00,
2014-04-04 02:22:00,72.1,65.2,30.04,SSE,156,0.0,4.0,79,0.00,,,0.00,0.0,WUHU216DAVISVP2,2014-04-04 06:22:00,
2014-04-04 02:27:00,72.2,65.1,30.04,SSE,156,0.0,4.0,78,0.00,,,0.00,0.0,WUHU216DAVISVP2,2014-04-04 06:27:00,
2014-04-04 02:32:00,72.2,65.1,30.04,SSE,156,0.0,3.0,78,0.00,,,0.00,0.0,WUHU216DAVISVP2,2014-04-04 06:32:00,
2014-04-04 02:38:00,72.2,65.1,30.04,SSE,156,0.0,3.0,78,0.00,,,0.00,0.0,WUHU216DAVISVP2,2014-04-04 06:38:00,
2014-04-04 02:43:00,72.2,65.1,30.04,SSE,166,0.0,1.0,78,0.00,,,0.00,0.0,WUHU216DAVISVP2,2014-04-04 06:43:00,
2014-04-04 02:48:00,72.1,65.0,30.04,SSE,166,0.0,1.0,78,0.00,,,0.00,0.0,WUHU216DAVISVP2,2014-04-04 06:48:00,
2014-04-04 02:53:00,72.1,64.9,30.03,SSE,166,0.0,1.0,78,0.00,,,0.00,0.0,WUHU216DAVISVP2,2014-04-04 06:53:00,
2014-04-04 02:58:00,72.0,64.8,30.03,SSE,165,0.0,2.0,78,0.00,,,0.00,0.0,WUHU216DAVISVP2,2014-04-04 06:58:00,
2014-04-04 03:03:00,72.0,64.9,30.03,SSE,152,0.0,2.0,78,0.00,,,0.00,0.0,WUHU216DAVISVP2,2014-04-04 07:03:00,
2014-04-04 03:08:00,71.9,64.8,30.03,SSE,152,0.0,2.0,78,0.00,,,0.00,0.0,WUHU216DAVISVP2,2014-04-04 07:08:00,
2014-04-04 03:13:00,71.9,64.8,30.03,SSE,152,0.0,2.0,78,0.00,,,0.00,0.0,WUHU216DAVISVP2,2014-04-04 07:13:00,
2014-04-04 03:18:00,71.8,64.7,30.03,SSE,152,0.0,2.0,78,0.00,,,0.00,0.0,WUHU216DAVISVP2,2014-04-04 07:18:00,
2014-04-04 03:23:00,71.7,64.6,30.02,SSE,152,0.0,1.0,78,0.00,,,0.00,0.0,WUHU216DAVISVP2,2014-04-04 07:23:00,
2014-04-04 03:28:00,71.6,64.8,30.02,ESE,115,2.0,4.0,79,0.00,,,0.00,0.0,WUHU216DAVISVP2,2014-04-04 07:28:00,
2014-04-04 03:33:00,71.7,64.8,30.02,ESE,118,0.0,4.0,79,0.00,,,0.00,0.0,WUHU216DAVISVP2,2014-04-04 07:33:00,
2014-04-04 03:38:00,71.7,64.8,30.02,SE,137,1.0,3.0,79,0.00,,,0.00,0.0,WUHU216DAVISVP2,2014-04-04 07:38:00,
2014-04-04 03:43:00,71.8,65.3,30.01,East,101,1.0,3.0,80,0.00,,,0.00,0.0,WUHU216DAVISVP2,2014-04-04 07:43:00,
2014-04-04 03:48:00,72.0,65.2,30.01,ESE,105,1.0,3.0,79,0.00,,,0.00,0.0,WUHU216DAVISVP2,2014-04-04 07:48:00,
2014-04-04 03:53:00,72.0,65.2,30.01,SE,130,1.0,3.0,79,0.00,,,0.00,0.0,WUHU216DAVISVP2,2014-04-04 07:53:00,
2014-04-04 03:58:00,72.1,65.3,30.01,SE,143,0.0,3.0,79,0.00,,,0.00,0.0,WUHU216DAVISVP2,2014-04-04 07:58:00,
2014-04-04 04:03:00,72.1,65.0,30.01,SSE,151,0.0,3.0,78,0.00,,,0.00,0.0,WUHU216DAVISVP2,2014-04-04 08:03:00,
2014-04-04 04:08:00,72.1,65.0,30.01,SE,138,0.0,2.0,78,0.00,,,0.00,0.0,WUHU216DAVISVP2,2014-04-04 08:08:00,
2014-04-04 04:13:00,72.1,65.0,30.01,SE,138,0.0,2.0,78,0.00,,,0.00,0.0,WUHU216DAVISVP2,2014-04-04 08:13:00,
2014-04-04 04:18:00,72.0,64.9,30.01,SE,138,0.0,1.0,78,0.00,,,0.00,0.0,WUHU216DAVISVP2,2014-04-04 08:18:00,
2014-04-04 04:23:00,72.0,64.9,30.01,SE,146,0.0,1.0,78,0.00,,,0.00,0.0,WUHU216DAVISVP2,2014-04-04 08:23:00,
2014-04-04 04:28:00,71.9,64.7,30.01,SE,146,0.0,1.0,78,0.00,,,0.00,0.0,WUHU216DAVISVP2,2014-04-04 08:28:00,
2014-04-04 04:33:00,71.8,64.6,30.01,SE,146,0.0,1.0,78,0.00,,,0.00,0.0,WUHU216DAVISVP2,2014-04-04 08:33:00,
2014-04-04 04:38:00,71.6,64.5,30.00,SE,146,0.0,1.0,78,0.00,,,0.00,0.0,WUHU216DAVISVP2,2014-04-04 08:38:00,
2014-04-04 04:43:00,71.4,64.3,30.00,SE,146,0.0,0.0,78,0.00,,,0.00,0.0,WUHU216DAVISVP2,2014-04-04 08:43:00,
2014-04-04 04:48:00,71.2,64.1,30.01,SE,146,0.0,0.0,78,0.00,,,0.00,0.0,WUHU216DAVISVP2,2014-04-04 08:48:00,
2014-04-04 04:53:00,71.1,64.0,30.01,ESE,123,0.0,1.0,78,0.00,,,0.00,0.0,WUHU216DAVISVP2,2014-04-04 08:53:00,
2014-04-04 04:58:00,70.9,63.8,30.01,ESE,123,0.0,1.0,78,0.00,,,0.00,0.0,WUHU216DAVISVP2,2014-04-04 08:58:00,
2014-04-04 05:03:00,70.7,63.6,30.01,ESE,123,0.0,1.0,78,0.00,,,0.00,0.0,WUHU216DAVISVP2,2014-04-04 09:03:00,
2014-04-04 05:08:00,70.5,63.4,30.00,ESE,123,0.0,1.0,78,0.00,,,0.00,0.0,WUHU216DAVISVP2,2014-04-04 09:08:00,
2014-04-04 05:13:00,70.3,63.2,30.00,ESE,123,0.0,0.0,78,0.00,,,0.00,0.0,WUHU216DAVISVP2,2014-04-04 09:13:00,
2014-04-04 05:18:00,70.1,62.9,30.00,ESE,123,0.0,0.0,78,0.00,,,0.00,0.0,WUHU216DAVISVP2,2014-04-04 09:18:00,
2014-04-04 05:23:00,69.9,62.7,30.00,ESE,123,0.0,0.0,78,0.00,,,0.00,0.0,WUHU216DAVISVP2,2014-04-04 09:23:00,
2014-04-04 05:28:00,69.8,62.7,30.00,ESE,123,0.0,0.0,78,0.00,,,0.00,0.0,WUHU216DAVISVP2,2014-04-04 09:28:00,
2014-04-04 05:33:00,69.5,62.4,30.00,ESE,123,0.0,0.0,78,0.00,,,0.00,0.0,WUHU216DAVISVP2,2014-04-04 09:33:00,
2014-04-04 05:39:00,69.4,62.7,30.00,ESE,123,0.0,0.0,79,0.00,,,0.00,0.0,WUHU216DAVISVP2,2014-04-04 09:39:00,
2014-04-04 05:44:00,69.2,62.5,30.00,ESE,123,0.0,0.0,79,0.00,,,0.00,0.0,WUHU216DAVISVP2,2014-04-04 09:44:00,
2014-04-04 05:49:00,69.1,62.7,30.00,South,180,0.0,3.0,80,0.00,,,0.00,0.0,WUHU216DAVISVP2,2014-04-04 09:49:00,
2014-04-04 05:54:00,69.0,62.7,30.00,SW,218,1.0,4.0,80,0.00,,,0.00,0.0,WUHU216DAVISVP2,2014-04-04 09:54:00,
2014-04-04 05:59:00,69.1,63.4,30.01,SW,218,0.0,4.0,82,0.00,,,0.00,0.0,WUHU216DAVISVP2,2014-04-04 09:59:00,
2014-04-04 06:04:00,69.2,63.5,30.01,SW,218,0.0,4.0,82,0.00,,,0.00,0.0,WUHU216DAVISVP2,2014-04-04 10:04:00,
2014-04-04 06:09:00,69.4,64.0,30.01,SSW,207,0.0,4.0,83,0.00,,,0.00,0.0,WUHU216DAVISVP2,2014-04-04 10:09:00,
2014-04-04 06:14:00,69.5,64.1,30.01,ESE,113,1.0,2.0,83,0.00,,,0.00,0.0,WUHU216DAVISVP2,2014-04-04 10:14:00,
2014-04-04 06:19:00,69.7,64.3,30.01,SSW,197,0.0,4.0,83,0.00,,,0.00,0.0,WUHU216DAVISVP2,2014-04-04 10:19:00,
2014-04-04 06:24:00,69.8,64.5,30.01,NNE,26,2.0,4.0,83,0.00,,,0.00,0.0,WUHU216DAVISVP2,2014-04-04 10:24:00,
2014-04-04 06:29:00,70.0,64.3,30.01,SE,132,0.0,4.0,82,0.00,,,0.00,0.0,WUHU216DAVISVP2,2014-04-04 10:29:00,
2014-04-04 06:34:00,70.2,64.2,30.02,ESE,117,0.0,4.0,81,0.00,,,0.00,0.0,WUHU216DAVISVP2,2014-04-04 10:34:00,
2014-04-04 06:39:00,70.4,64.4,30.01,SSE,155,0.0,4.0,81,0.00,,,0.00,0.0,WUHU216DAVISVP2,2014-04-04 10:39:00,
2014-04-04 06:44:00,70.5,64.1,30.02,South,180,0.0,4.0,80,0.00,,,0.00,0.0,WUHU216DAVISVP2,2014-04-04 10:44:00,
2014-04-04 06:49:00,70.7,64.3,30.01,South,180,0.0,3.0,80,0.00,,,0.00,0.0,WUHU216DAVISVP2,2014-04-04 10:49:00,
2014-04-04 06:54:00,70.8,64.1,30.01,SE,142,1.0,4.0,79,0.00,,,0.00,0.0,WUHU216DAVISVP2,2014-04-04 10:54:00,
2014-04-04 06:59:00,71.0,64.3,30.02,SSE,149,0.0,4.0,79,0.00,,,0.00,0.0,WUHU216DAVISVP2,2014-04-04 10:59:00,
2014-04-04 07:04:00,71.2,64.5,30.02,SE,142,0.0,3.0,79,0.00,,,0.00,0.0,WUHU216DAVISVP2,2014-04-04 11:04:00,
2014-04-04 07:09:00,71.4,64.3,30.02,South,191,0.0,7.0,78,0.00,,,0.00,0.0,WUHU216DAVISVP2,2014-04-04 11:09:00,
2014-04-04 07:14:00,71.6,64.5,30.02,SSE,163,1.0,7.0,78,0.00,,,0.00,7.0,WUHU216DAVISVP2,2014-04-04 11:14:00,
2014-04-04 07:19:00,71.7,64.2,30.02,SW,229,0.0,7.0,77,0.00,,,0.00,14.0,WUHU216DAVISVP2,2014-04-04 11:19:00,
2014-04-04 07:24:00,71.8,64.3,30.02,South,169,0.0,7.0,77,0.00,,,0.00,23.0,WUHU216DAVISVP2,2014-04-04 11:24:00,
2014-04-04 07:29:00,71.9,64.1,30.02,South,190,0.0,5.0,76,0.00,,,0.00,26.0,WUHU216DAVISVP2,2014-04-04 11:29:00,
2014-04-04 07:34:00,71.9,63.9,30.03,SE,138,0.0,5.0,76,0.00,,,0.00,37.0,WUHU216DAVISVP2,2014-04-04 11:34:00,
2014-04-04 07:39:00,72.1,64.3,30.03,SE,130,5.0,5.0,76,0.00,,,0.00,47.0,WUHU216DAVISVP2,2014-04-04 11:39:00,
2014-04-04 07:44:00,72.3,64.4,30.03,NNW,342,0.0,6.0,76,0.00,,,0.00,53.0,WUHU216DAVISVP2,2014-04-04 11:44:00,
2014-04-04 07:49:00,72.5,64.6,30.03,South,175,0.0,6.0,76,0.00,,,0.00,81.0,WUHU216DAVISVP2,2014-04-04 11:49:00,
2014-04-04 07:54:00,72.8,64.9,30.03,South,177,0.0,6.0,76,0.00,,,0.00,91.0,WUHU216DAVISVP2,2014-04-04 11:54:00,
2014-04-04 08:00:00,73.2,64.9,30.03,SSW,192,0.0,4.0,75,0.00,,,0.00,128.0,WUHU216DAVISVP2,2014-04-04 12:00:00,
2014-04-04 08:05:00,73.7,65.4,30.03,SSW,195,0.0,4.0,75,0.00,,,0.00,114.0,WUHU216DAVISVP2,2014-04-04 12:05:00,
2014-04-04 08:10:00,74.1,65.8,30.03,South,169,0.0,4.0,75,0.00,,,0.00,123.0,WUHU216DAVISVP2,2014-04-04 12:10:00,
2014-04-04 08:15:00,74.6,65.9,30.03,South,173,1.0,4.0,74,0.00,,,0.00,118.0,WUHU216DAVISVP2,2014-04-04 12:15:00,
2014-04-04 08:20:00,75.1,66.0,30.03,SE,136,3.0,4.0,73,0.00,,,0.00,211.0,WUHU216DAVISVP2,2014-04-04 12:20:00,
2014-04-04 08:25:00,75.6,65.5,30.03,SW,225,4.0,10.0,71,0.00,,,0.00,163.0,WUHU216DAVISVP2,2014-04-04 12:25:00,
2014-04-04 08:30:00,76.1,65.8,30.03,South,178,1.0,10.0,70,0.00,,,0.00,179.0,WUHU216DAVISVP2,2014-04-04 12:30:00,
2014-04-04 08:35:00,76.6,65.9,30.03,SSE,148,2.0,10.0,69,0.00,,,0.00,186.0,WUHU216DAVISVP2,2014-04-04 12:35:00,
2014-04-04 08:40:00,76.9,65.3,30.03,South,180,3.0,11.0,67,0.00,,,0.00,276.0,WUHU216DAVISVP2,2014-04-04 12:40:00,
2014-04-04 08:45:00,77.3,65.3,30.04,SSW,194,4.0,11.0,66,0.00,,,0.00,220.0,WUHU216DAVISVP2,2014-04-04 12:45:00,
2014-04-04 08:50:00,77.6,65.1,30.04,SE,131,2.0,11.0,65,0.00,,,0.00,195.0,WUHU216DAVISVP2,2014-04-04 12:50:00,
2014-04-04 08:55:00,77.8,65.3,30.04,South,180,4.0,11.0,65,0.00,,,0.00,241.0,WUHU216DAVISVP2,2014-04-04 12:55:00,
2014-04-04 09:00:00,78.1,65.4,30.04,SSE,157,2.0,10.0,65,0.00,,,0.00,292.0,WUHU216DAVISVP2,2014-04-04 13:00:00,
2014-04-04 09:05:00,78.4,65.9,30.05,South,180,2.0,10.0,65,0.00,,,0.00,318.0,WUHU216DAVISVP2,2014-04-04 13:05:00,
2014-04-04 09:10:00,78.7,65.9,30.05,WSW,237,1.0,10.0,65,0.00,,,0.00,376.0,WUHU216DAVISVP2,2014-04-04 13:10:00,
2014-04-04 09:15:00,79.1,66.6,30.05,SE,132,3.0,10.0,65,0.00,,,0.00,199.0,WUHU216DAVISVP2,2014-04-04 13:15:00,
2014-04-04 09:20:00,79.2,66.2,30.05,SSW,213,4.0,10.0,64,0.00,,,0.00,325.0,WUHU216DAVISVP2,2014-04-04 13:20:00,
2014-04-04 09:25:00,79.3,66.1,30.05,East,90,8.0,9.0,64,0.00,,,0.00,424.0,WUHU216DAVISVP2,2014-04-04 13:25:00,
2014-04-04 09:30:00,79.5,66.0,30.05,South,178,1.0,17.0,63,0.00,,,0.00,434.0,WUHU216DAVISVP2,2014-04-04 13:30:00,
2014-04-04 09:35:00,79.8,66.3,30.06,SE,146,3.0,17.0,63,0.00,,,0.00,436.0,WUHU216DAVISVP2,2014-04-04 13:35:00,
2014-04-04 09:40:00,80.0,66.1,30.05,East,92,1.0,17.0,62,0.00,,,0.00,220.0,WUHU216DAVISVP2,2014-04-04 13:40:00,
2014-04-04 09:45:00,80.2,65.8,30.06,ESE,117,6.0,17.0,61,0.00,,,0.00,461.0,WUHU216DAVISVP2,2014-04-04 13:45:00,
2014-04-04 09:50:00,80.4,66.4,30.06,SE,133,1.0,10.0,62,0.00,,,0.00,459.0,WUHU216DAVISVP2,2014-04-04 13:50:00,
2014-04-04 09:55:00,80.6,66.6,30.06,SE,142,5.0,10.0,62,0.00,,,0.00,404.0,WUHU216DAVISVP2,2014-04-04 13:55:00,
2014-04-04 10:00:00,80.6,66.4,30.06,SSE,147,2.0,10.0,62,0.00,,,0.00,216.0,WUHU216DAVISVP2,2014-04-04 14:00:00,
2014-04-04 10:05:00,80.4,66.9,30.06,SSW,205,6.0,10.0,63,0.00,,,0.00,223.0,WUHU216DAVISVP2,2014-04-04 14:05:00,
2014-04-04 10:10:00,80.2,66.5,30.06,South,176,5.0,10.0,63,0.00,,,0.00,422.0,WUHU216DAVISVP2,2014-04-04 14:10:00,
2014-04-04 10:15:00,80.1,67.1,30.06,SSW,201,3.0,10.0,64,0.00,,,0.00,248.0,WUHU216DAVISVP2,2014-04-04 14:15:00,
2014-04-04 10:20:00,80.0,67.0,30.06,East,94,2.0,11.0,64,0.00,,,0.00,241.0,WUHU216DAVISVP2,2014-04-04 14:20:00,
2014-04-04 10:25:00,80.0,67.4,30.06,SW,232,1.0,11.0,65,0.00,,,0.00,213.0,WUHU216DAVISVP2,2014-04-04 14:25:00,
2014-04-04 10:30:00,79.9,67.3,30.07,SSE,150,5.0,11.0,65,0.00,,,0.00,288.0,WUHU216DAVISVP2,2014-04-04 14:30:00,
2014-04-04 10:35:00,79.8,66.5,30.07,South,169,2.0,11.0,64,0.00,,,0.00,230.0,WUHU216DAVISVP2,2014-04-04 14:35:00,
2014-04-04 10:41:00,80.0,66.5,30.07,South,177,3.0,13.0,63,0.00,,,0.00,508.0,WUHU216DAVISVP2,2014-04-04 14:41:00,
2014-04-04 10:46:00,80.2,66.0,30.07,SSE,167,4.0,16.0,62,0.00,,,0.00,288.0,WUHU216DAVISVP2,2014-04-04 14:46:00,
2014-04-04 10:51:00,80.5,66.5,30.07,SSW,194,3.0,16.0,62,0.00,,,0.00,274.0,WUHU216DAVISVP2,2014-04-04 14:51:00,
2014-04-04 10:56:00,80.8,66.3,30.07,South,173,5.0,15.0,61,0.00,,,0.00,673.0,WUHU216DAVISVP2,2014-04-04 14:56:00,
2014-04-04 11:01:00,81.5,66.0,30.06,South,175,6.0,16.0,59,0.00,,,0.00,610.0,WUHU216DAVISVP2,2014-04-04 15:01:00,
2014-04-04 11:06:00,82.0,66.0,30.06,SE,134,8.0,16.0,58,0.00,,,0.00,700.0,WUHU216DAVISVP2,2014-04-04 15:06:00,
2014-04-04 11:11:00,82.3,65.8,30.06,West,259,2.0,16.0,57,0.00,,,0.00,691.0,WUHU216DAVISVP2,2014-04-04 15:11:00,
2014-04-04 11:16:00,82.4,64.8,30.06,East,86,3.0,16.0,55,0.00,,,0.00,740.0,WUHU216DAVISVP2,2014-04-04 15:16:00,
2014-04-04 11:21:00,83.0,64.8,30.06,SSE,150,3.0,14.0,54,0.00,,,0.00,830.0,WUHU216DAVISVP2,2014-04-04 15:21:00,
2014-04-04 11:26:00,83.5,65.3,30.06,SSW,201,3.0,14.0,54,0.00,,,0.00,838.0,WUHU216DAVISVP2,2014-04-04 15:26:00,
2014-04-04 11:31:00,84.0,66.3,30.06,South,186,3.0,12.0,55,0.00,,,0.00,900.0,WUHU216DAVISVP2,2014-04-04 15:31:00,
2014-04-04 11:36:00,84.5,65.5,30.06,SW,234,3.0,12.0,53,0.00,,,0.00,921.0,WUHU216DAVISVP2,2014-04-04 15:36:00,
2014-04-04 11:41:00,84.5,66.2,30.06,ESE,117,1.0,11.0,54,0.00,,,0.00,909.0,WUHU216DAVISVP2,2014-04-04 15:41:00,
2014-04-04 11:46:00,84.5,64.5,30.06,SW,217,2.0,12.0,51,0.00,,,0.00,357.0,WUHU216DAVISVP2,2014-04-04 15:46:00,
2014-04-04 11:51:00,84.5,65.1,30.06,WNW,294,4.0,12.0,52,0.00,,,0.00,888.0,WUHU216DAVISVP2,2014-04-04 15:51:00,
2014-04-04 11:56:00,84.5,65.7,30.06,SE,146,4.0,11.0,53,0.00,,,0.00,772.0,WUHU216DAVISVP2,2014-04-04 15:56:00,
2014-04-04 12:01:00,84.4,65.4,30.06,SSW,196,1.0,11.0,53,0.00,,,0.00,844.0,WUHU216DAVISVP2,2014-04-04 16:01:00,
2014-04-04 12:06:00,84.3,65.5,30.06,South,186,2.0,11.0,53,0.00,,,0.00,401.0,WUHU216DAVISVP2,2014-04-04 16:06:00,
2014-04-04 12:11:00,84.4,66.1,30.05,SSW,197,5.0,9.0,54,0.00,,,0.00,707.0,WUHU216DAVISVP2,2014-04-04 16:11:00,
2014-04-04 12:16:00,84.4,65.9,30.06,SSW,205,1.0,9.0,54,0.00,,,0.00,846.0,WUHU216DAVISVP2,2014-04-04 16:16:00,
2014-04-04 12:21:00,84.3,66.6,30.05,South,191,3.0,9.0,55,0.00,,,0.00,954.0,WUHU216DAVISVP2,2014-04-04 16:21:00,
2014-04-04 12:26:00,84.3,67.1,30.05,SE,134,4.0,9.0,56,0.00,,,0.00,304.0,WUHU216DAVISVP2,2014-04-04 16:26:00,
2014-04-04 12:31:00,84.2,67.0,30.05,SSW,209,5.0,12.0,56,0.00,,,0.00,949.0,WUHU216DAVISVP2,2014-04-04 16:31:00,
2014-04-04 12:36:00,84.2,66.5,30.05,SSW,195,3.0,12.0,55,0.00,,,0.00,441.0,WUHU216DAVISVP2,2014-04-04 16:36:00,
2014-04-04 12:41:00,84.4,67.2,30.05,SE,146,2.0,16.0,56,0.00,,,0.00,986.0,WUHU216DAVISVP2,2014-04-04 16:41:00,
2014-04-04 12:46:00,84.9,66.9,30.05,South,189,4.0,16.0,55,0.00,,,0.00,969.0,WUHU216DAVISVP2,2014-04-04 16:46:00,
2014-04-04 12:51:00,85.3,67.5,30.05,SW,225,4.0,15.0,55,0.00,,,0.00,969.0,WUHU216DAVISVP2,2014-04-04 16:51:00,
2014-04-04 12:56:00,85.4,66.5,30.05,South,179,8.0,12.0,53,0.00,,,0.00,909.0,WUHU216DAVISVP2,2014-04-04 16:56:00,
2014-04-04 13:01:00,85.4,66.5,30.05,South,188,7.0,12.0,53,0.00,,,0.00,888.0,WUHU216DAVISVP2,2014-04-04 17:01:00,
2014-04-04 13:06:00,85.9,67.3,30.05,SW,220,10.0,12.0,54,0.00,,,0.00,1121.0,WUHU216DAVISVP2,2014-04-04 17:06:00,
2014-04-04 13:11:00,86.0,66.3,30.04,SSE,164,1.0,11.0,52,0.00,,,0.00,378.0,WUHU216DAVISVP2,2014-04-04 17:11:00,
2014-04-04 13:17:00,85.8,65.7,30.04,SSE,154,6.0,11.0,51,0.00,,,0.00,381.0,WUHU216DAVISVP2,2014-04-04 17:17:00,
2014-04-04 13:22:00,85.3,66.4,30.04,South,171,6.0,11.0,53,0.00,,,0.00,970.0,WUHU216DAVISVP2,2014-04-04 17:22:00,
2014-04-04 13:27:00,85.3,66.4,30.04,SE,129,3.0,12.0,53,0.00,,,0.00,904.0,WUHU216DAVISVP2,2014-04-04 17:27:00,
2014-04-04 13:32:00,85.3,65.9,30.04,SW,223,3.0,12.0,52,0.00,,,0.00,849.0,WUHU216DAVISVP2,2014-04-04 17:32:00,
2014-04-04 13:37:00,85.4,66.0,30.04,SW,226,5.0,12.0,52,0.00,,,0.00,988.0,WUHU216DAVISVP2,2014-04-04 17:37:00,
2014-04-04 13:42:00,85.3,65.7,30.04,South,180,4.0,13.0,52,0.00,,,0.00,990.0,WUHU216DAVISVP2,2014-04-04 17:42:00,
2014-04-04 13:47:00,85.3,66.4,30.04,SSE,155,3.0,13.0,53,0.00,,,0.00,884.0,WUHU216DAVISVP2,2014-04-04 17:47:00,
2014-04-04 13:52:00,85.1,66.8,30.03,SE,132,3.0,13.0,54,0.00,,,0.00,942.0,WUHU216DAVISVP2,2014-04-04 17:52:00,
2014-04-04 13:57:00,85.5,67.2,30.03,East,101,1.0,13.0,54,0.00,,,0.00,1109.0,WUHU216DAVISVP2,2014-04-04 17:57:00,
2014-04-04 14:02:00,86.0,67.6,30.03,SSW,205,3.0,13.0,54,0.00,,,0.00,1042.0,WUHU216DAVISVP2,2014-04-04 18:02:00,
2014-04-04 14:07:00,86.5,67.0,30.03,SSW,192,3.0,13.0,52,0.00,,,0.00,299.0,WUHU216DAVISVP2,2014-04-04 18:07:00,
2014-04-04 14:12:00,85.9,66.4,30.02,SE,132,5.0,13.0,52,0.00,,,0.00,1041.0,WUHU216DAVISVP2,2014-04-04 18:12:00,
2014-04-04 14:17:00,85.8,66.9,30.03,SSW,206,2.0,13.0,53,0.00,,,0.00,810.0,WUHU216DAVISVP2,2014-04-04 18:17:00,
2014-04-04 14:22:00,85.5,66.6,30.02,SSE,149,4.0,13.0,53,0.00,,,0.00,942.0,WUHU216DAVISVP2,2014-04-04 18:22:00,
2014-04-04 14:27:00,85.7,66.8,30.02,SE,145,5.0,13.0,53,0.00,,,0.00,714.0,WUHU216DAVISVP2,2014-04-04 18:27:00,
2014-04-04 14:32:00,85.6,66.5,30.02,South,191,8.0,12.0,53,0.00,,,0.00,856.0,WUHU216DAVISVP2,2014-04-04 18:32:00,
2014-04-04 14:37:00,85.9,67.0,30.02,SSW,196,9.0,12.0,53,0.00,,,0.00,1093.0,WUHU216DAVISVP2,2014-04-04 18:37:00,
2014-04-04 14:42:00,86.3,66.8,30.02,SSE,159,2.0,11.0,52,0.00,,,0.00,587.0,WUHU216DAVISVP2,2014-04-04 18:42:00,
2014-04-04 14:47:00,86.1,66.6,30.01,South,174,1.0,10.0,52,0.00,,,0.00,1000.0,WUHU216DAVISVP2,2014-04-04 18:47:00,
2014-04-04 14:52:00,85.8,66.7,30.01,SSE,168,0.0,10.0,53,0.00,,,0.00,540.0,WUHU216DAVISVP2,2014-04-04 18:52:00,
2014-04-04 14:57:00,85.9,66.8,30.01,WSW,241,4.0,9.0,53,0.00,,,0.00,835.0,WUHU216DAVISVP2,2014-04-04 18:57:00,
2014-04-04 15:02:00,85.7,67.1,30.01,SSE,167,4.0,9.0,54,0.00,,,0.00,705.0,WUHU216DAVISVP2,2014-04-04 19:02:00,
2014-04-04 15:07:00,84.2,66.5,30.01,SE,145,2.0,10.0,55,0.00,,,0.00,881.0,WUHU216DAVISVP2,2014-04-04 19:07:00,
2014-04-04 15:12:00,83.3,66.2,30.01,SE,136,3.0,10.0,56,0.00,,,0.00,476.0,WUHU216DAVISVP2,2014-04-04 19:12:00,
2014-04-04 15:17:00,83.1,66.3,30.01,South,174,5.0,10.0,57,0.00,,,0.00,420.0,WUHU216DAVISVP2,2014-04-04 19:17:00,
2014-04-04 15:22:00,82.7,66.1,30.01,SE,133,5.0,10.0,57,0.00,,,0.00,339.0,WUHU216DAVISVP2,2014-04-04 19:22:00,
2014-04-04 15:27:00,82.8,66.7,30.01,SE,140,3.0,10.0,58,0.00,,,0.00,573.0,WUHU216DAVISVP2,2014-04-04 19:27:00,
2014-04-04 15:32:00,83.3,66.5,30.02,SE,143,5.0,10.0,57,0.00,,,0.00,728.0,WUHU216DAVISVP2,2014-04-04 19:32:00,
2014-04-04 15:37:00,84.2,67.0,30.01,SSE,164,5.0,10.0,56,0.00,,,0.00,962.0,WUHU216DAVISVP2,2014-04-04 19:37:00,
2014-04-04 15:42:00,84.7,67.0,30.01,SSE,163,4.0,10.0,55,0.00,,,0.00,963.0,WUHU216DAVISVP2,2014-04-04 19:42:00,
2014-04-04 15:47:00,84.1,66.9,30.01,ENE,70,4.0,10.0,56,0.00,,,0.00,608.0,WUHU216DAVISVP2,2014-04-04 19:47:00,
2014-04-04 15:52:00,83.6,67.3,30.01,ENE,76,7.0,10.0,58,0.00,,,0.00,721.0,WUHU216DAVISVP2,2014-04-04 19:52:00,
2014-04-04 15:57:00,83.8,67.2,30.01,East,97,0.0,10.0,57,0.00,,,0.00,227.0,WUHU216DAVISVP2,2014-04-04 19:57:00,
2014-04-04 16:02:00,82.6,66.1,30.00,SE,141,2.0,10.0,57,0.00,,,0.00,192.0,WUHU216DAVISVP2,2014-04-04 20:02:00,
2014-04-04 16:07:00,82.4,66.4,30.00,SE,141,3.0,10.0,58,0.00,,,0.00,193.0,WUHU216DAVISVP2,2014-04-04 20:07:00,
2014-04-04 16:13:00,82.9,66.8,30.00,ESE,105,4.0,10.0,58,0.00,,,0.00,229.0,WUHU216DAVISVP2,2014-04-04 20:13:00,
2014-04-04 16:18:00,83.1,68.0,30.00,SSE,153,0.0,10.0,60,0.00,,,0.00,847.0,WUHU216DAVISVP2,2014-04-04 20:18:00,
2014-04-04 16:23:00,84.2,67.0,30.00,SE,126,2.0,9.0,56,0.00,,,0.00,719.0,WUHU216DAVISVP2,2014-04-04 20:23:00,
2014-04-04 16:28:00,84.1,66.7,30.00,SSE,150,4.0,10.0,56,0.00,,,0.00,708.0,WUHU216DAVISVP2,2014-04-04 20:28:00,
2014-04-04 16:33:00,84.6,67.4,30.00,South,184,8.0,10.0,56,0.00,,,0.00,698.0,WUHU216DAVISVP2,2014-04-04 20:33:00,
2014-04-04 16:38:00,84.1,66.4,29.99,South,181,3.0,12.0,55,0.00,,,0.00,700.0,WUHU216DAVISVP2,2014-04-04 20:38:00,
2014-04-04 16:43:00,83.9,67.3,29.99,East,84,4.0,12.0,57,0.00,,,0.00,689.0,WUHU216DAVISVP2,2014-04-04 20:43:00,
2014-04-04 16:48:00,84.2,67.0,29.99,South,172,1.0,12.0,56,0.00,,,0.00,649.0,WUHU216DAVISVP2,2014-04-04 20:48:00,
2014-04-04 16:53:00,84.4,67.7,30.00,SSE,159,4.0,11.0,57,0.00,,,0.00,610.0,WUHU216DAVISVP2,2014-04-04 20:53:00,
2014-04-04 16:58:00,83.8,67.2,29.99,SE,146,0.0,9.0,57,0.00,,,0.00,559.0,WUHU216DAVISVP2,2014-04-04 20:58:00,
2014-04-04 17:03:00,84.2,67.6,29.99,SE,142,2.0,10.0,57,0.00,,,0.00,592.0,WUHU216DAVISVP2,2014-04-04 21:03:00,
2014-04-04 17:08:00,83.8,66.9,29.99,South,188,3.0,10.0,57,0.00,,,0.00,554.0,WUHU216DAVISVP2,2014-04-04 21:08:00,
2014-04-04 17:13:00,83.4,67.1,29.99,South,186,1.0,10.0,58,0.00,,,0.00,439.0,WUHU216DAVISVP2,2014-04-04 21:13:00,
2014-04-04 17:18:00,82.7,66.7,29.99,ESE,112,2.0,10.0,58,0.00,,,0.00,413.0,WUHU216DAVISVP2,2014-04-04 21:18:00,
2014-04-04 17:23:00,82.3,66.8,29.99,ESE,113,3.0,10.0,59,0.00,,,0.00,418.0,WUHU216DAVISVP2,2014-04-04 21:23:00,
2014-04-04 17:28:00,82.6,67.1,29.99,South,169,2.0,10.0,59,0.00,,,0.00,262.0,WUHU216DAVISVP2,2014-04-04 21:28:00,
2014-04-04 17:33:00,82.5,67.0,30.00,SE,129,1.0,10.0,59,0.00,,,0.00,483.0,WUHU216DAVISVP2,2014-04-04 21:33:00,
2014-04-04 17:38:00,82.3,66.8,30.00,ESE,113,1.0,11.0,59,0.00,,,0.00,462.0,WUHU216DAVISVP2,2014-04-04 21:38:00,
2014-04-04 17:43:00,82.2,66.7,29.99,SE,146,2.0,11.0,59,0.00,,,0.00,429.0,WUHU216DAVISVP2,2014-04-04 21:43:00,
2014-04-04 17:48:00,82.3,67.3,30.00,SSE,165,6.0,11.0,60,0.00,,,0.00,223.0,WUHU216DAVISVP2,2014-04-04 21:48:00,
2014-04-04 17:53:00,82.0,67.5,30.00,ESE,109,1.0,12.0,61,0.00,,,0.00,371.0,WUHU216DAVISVP2,2014-04-04 21:53:00,
2014-04-04 17:58:00,81.9,67.9,30.00,ENE,75,4.0,12.0,62,0.00,,,0.00,343.0,WUHU216DAVISVP2,2014-04-04 21:58:00,
2014-04-04 18:03:00,81.8,67.8,30.00,SE,129,5.0,12.0,62,0.00,,,0.00,325.0,WUHU216DAVISVP2,2014-04-04 22:03:00,
2014-04-04 18:08:00,81.6,68.0,30.00,SSW,202,0.0,12.0,63,0.00,,,0.00,297.0,WUHU216DAVISVP2,2014-04-04 22:08:00,
2014-04-04 18:13:00,81.8,67.8,30.00,SE,140,2.0,9.0,62,0.00,,,0.00,227.0,WUHU216DAVISVP2,2014-04-04 22:13:00,
2014-04-04 18:18:00,81.2,67.2,30.00,SE,143,4.0,8.0,62,0.00,,,0.00,250.0,WUHU216DAVISVP2,2014-04-04 22:18:00,
2014-04-04 18:23:00,80.9,67.4,30.00,ESE,114,4.0,8.0,63,0.00,,,0.00,199.0,WUHU216DAVISVP2,2014-04-04 22:23:00,
2014-04-04 18:28:00,80.7,67.6,30.00,ESE,111,2.0,9.0,64,0.00,,,0.00,54.0,WUHU216DAVISVP2,2014-04-04 22:28:00,
2014-04-04 18:33:00,80.7,67.6,30.00,SE,146,3.0,9.0,64,0.00,,,0.00,49.0,WUHU216DAVISVP2,2014-04-04 22:33:00,
2014-04-04 18:38:00,80.7,67.6,30.00,SE,138,4.0,8.0,64,0.00,,,0.00,46.0,WUHU216DAVISVP2,2014-04-04 22:38:00,
2014-04-04 18:43:00,80.6,67.1,30.00,SE,141,3.0,9.0,63,0.00,,,0.00,42.0,WUHU216DAVISVP2,2014-04-04 22:43:00,
2014-04-04 18:48:00,80.4,67.1,30.00,SE,144,2.0,9.0,64,0.00,,,0.00,39.0,WUHU216DAVISVP2,2014-04-04 22:48:00,
2014-04-04 18:54:00,80.2,66.7,30.00,SE,126,5.0,9.0,63,0.00,,,0.00,35.0,WUHU216DAVISVP2,2014-04-04 22:54:00,
2014-04-04 18:59:00,80.1,67.1,30.00,South,186,0.0,9.0,64,0.00,,,0.00,32.0,WUHU216DAVISVP2,2014-04-04 22:59:00,
2014-04-04 19:04:00,79.9,67.3,30.00,SW,230,2.0,8.0,65,0.00,,,0.00,26.0,WUHU216DAVISVP2,2014-04-04 23:04:00,
2014-04-04 19:09:00,79.7,67.1,30.00,East,98,0.0,8.0,65,0.00,,,0.00,23.0,WUHU216DAVISVP2,2014-04-04 23:09:00,
2014-04-04 19:14:00,79.6,67.0,30.00,ESE,121,1.0,6.0,65,0.00,,,0.00,19.0,WUHU216DAVISVP2,2014-04-04 23:14:00,
2014-04-04 19:19:00,79.4,67.3,30.00,ENE,59,2.0,6.0,66,0.00,,,0.00,16.0,WUHU216DAVISVP2,2014-04-04 23:19:00,
2014-04-04 19:24:00,79.2,67.1,30.00,SSW,194,2.0,7.0,66,0.00,,,0.00,12.0,WUHU216DAVISVP2,2014-04-04 23:24:00,
2014-04-04 19:29:00,79.0,66.9,30.00,SSW,197,1.0,7.0,66,0.00,,,0.00,9.0,WUHU216DAVISVP2,2014-04-04 23:29:00,
2014-04-04 19:34:00,78.8,67.1,30.00,SE,132,3.0,8.0,67,0.00,,,0.00,5.0,WUHU216DAVISVP2,2014-04-04 23:34:00,
2014-04-04 19:39:00,78.6,67.0,30.00,ESE,112,2.0,8.0,67,0.00,,,0.00,0.0,WUHU216DAVISVP2,2014-04-04 23:39:00,
2014-04-04 19:44:00,78.4,67.2,30.00,SE,142,0.0,8.0,68,0.00,,,0.00,0.0,WUHU216DAVISVP2,2014-04-04 23:44:00,
2014-04-04 19:49:00,78.3,67.1,30.00,South,175,2.0,6.0,68,0.00,,,0.00,0.0,WUHU216DAVISVP2,2014-04-04 23:49:00,
2014-04-04 19:54:00,78.1,66.7,30.00,SE,146,0.0,7.0,68,0.00,,,0.00,0.0,WUHU216DAVISVP2,2014-04-04 23:54:00,
2014-04-04 19:59:00,77.9,66.7,30.00,SE,145,3.0,7.0,68,0.00,,,0.00,0.0,WUHU216DAVISVP2,2014-04-04 23:59:00,
2014-04-04 20:04:00,77.8,66.6,30.00,South,190,1.0,7.0,68,0.00,,,0.00,0.0,WUHU216DAVISVP2,2014-04-05 00:04:00,
2014-04-04 20:09:00,77.7,66.9,30.00,SSE,163,1.0,7.0,69,0.00,,,0.00,0.0,WUHU216DAVISVP2,2014-04-05 00:09:00,
2014-04-04 20:14:00,77.6,66.8,30.00,South,178,2.0,6.0,69,0.00,,,0.00,0.0,WUHU216DAVISVP2,2014-04-05 00:14:00,
2014-04-04 20:19:00,77.6,66.8,30.01,SE,130,1.0,6.0,69,0.00,,,0.00,0.0,WUHU216DAVISVP2,2014-04-05 00:19:00,
2014-04-04 20:24:00,77.5,66.7,30.01,ESE,103,0.0,6.0,69,0.00,,,0.00,0.0,WUHU216DAVISVP2,2014-04-05 00:24:00,
2014-04-04 20:29:00,77.3,66.3,30.01,SE,140,0.0,6.0,69,0.00,,,0.00,0.0,WUHU216DAVISVP2,2014-04-05 00:29:00,
2014-04-04 20:34:00,77.2,66.5,30.00,East,88,0.0,9.0,69,0.00,,,0.00,0.0,WUHU216DAVISVP2,2014-04-05 00:34:00,
2014-04-04 20:39:00,77.2,66.5,30.01,SSW,193,2.0,9.0,69,0.00,,,0.00,0.0,WUHU216DAVISVP2,2014-04-05 00:39:00,
2014-04-04 20:44:00,77.1,66.4,30.01,SSE,166,1.0,9.0,69,0.00,,,0.00,0.0,WUHU216DAVISVP2,2014-04-05 00:44:00,
2014-04-04 20:49:00,77.0,66.3,30.00,ESE,119,0.0,6.0,69,0.00,,,0.00,0.0,WUHU216DAVISVP2,2014-04-05 00:49:00,
2014-04-04 20:54:00,77.0,66.5,30.01,SSE,150,0.0,5.0,70,0.00,,,0.00,0.0,WUHU216DAVISVP2,2014-04-05 00:54:00,
2014-04-04 20:59:00,77.0,66.7,30.01,SSE,165,0.0,5.0,70,0.00,,,0.00,0.0,WUHU216DAVISVP2,2014-04-05 00:59:00,
2014-04-04 21:04:00,76.9,66.6,30.01,SE,133,0.0,8.0,70,0.00,,,0.00,0.0,WUHU216DAVISVP2,2014-04-05 01:04:00,
2014-04-04 21:09:00,76.8,66.3,30.01,SE,134,3.0,8.0,70,0.00,,,0.00,0.0,WUHU216DAVISVP2,2014-04-05 01:09:00,
2014-04-04 21:14:00,76.7,66.4,30.02,ESE,120,1.0,8.0,70,0.00,,,0.00,0.0,WUHU216DAVISVP2,2014-04-05 01:14:00,
2014-04-04 21:19:00,76.6,66.3,30.02,ESE,115,0.0,8.0,70,0.00,,,0.00,0.0,WUHU216DAVISVP2,2014-04-05 01:19:00,
2014-04-04 21:24:00,76.6,66.1,30.02,ESE,111,0.0,3.0,70,0.00,,,0.00,0.0,WUHU216DAVISVP2,2014-04-05 01:24:00,
2014-04-04 21:29:00,76.5,66.0,30.02,ESE,111,1.0,2.0,70,0.00,,,0.00,0.0,WUHU216DAVISVP2,2014-04-05 01:29:00,
2014-04-04 21:34:00,76.4,66.1,30.02,ESE,119,0.0,2.0,70,0.00,,,0.00,0.0,WUHU216DAVISVP2,2014-04-05 01:34:00,
2014-04-04 21:39:00,76.3,66.4,30.02,SE,140,3.0,3.0,71,0.00,,,0.00,0.0,WUHU216DAVISVP2,2014-04-05 01:39:00,
2014-04-04 21:44:00,76.3,66.4,30.02,SSE,150,0.0,7.0,71,0.00,,,0.00,0.0,WUHU216DAVISVP2,2014-04-05 01:44:00,
2014-04-04 21:49:00,76.3,66.8,30.02,SSE,153,0.0,7.0,72,0.00,,,0.00,0.0,WUHU216DAVISVP2,2014-04-05 01:49:00,
2014-04-04 21:55:00,76.2,66.7,30.03,South,173,0.0,7.0,72,0.00,,,0.00,0.0,WUHU216DAVISVP2,2014-04-05 01:55:00,
2014-04-04 22:00:00,76.1,66.6,30.03,South,173,0.0,2.0,72,0.00,,,0.00,0.0,WUHU216DAVISVP2,2014-04-05 02:00:00,
2014-04-04 22:05:00,75.9,66.4,30.03,South,173,0.0,1.0,72,0.00,,,0.00,0.0,WUHU216DAVISVP2,2014-04-05 02:05:00,
2014-04-04 22:10:00,75.8,66.3,30.03,South,173,0.0,1.0,72,0.00,,,0.00,0.0,WUHU216DAVISVP2,2014-04-05 02:10:00,
2014-04-04 22:15:00,75.6,66.1,30.03,South,173,0.0,1.0,72,0.00,,,0.00,0.0,WUHU216DAVISVP2,2014-04-05 02:15:00,
2014-04-04 22:20:00,75.5,66.0,30.03,South,173,0.0,0.0,72,0.00,,,0.00,0.0,WUHU216DAVISVP2,2014-04-05 02:20:00,
2014-04-04 22:25:00,75.3,65.8,30.03,South,173,0.0,0.0,72,0.00,,,0.00,0.0,WUHU216DAVISVP2,2014-04-05 02:25:00,
2014-04-04 22:30:00,75.2,66.1,30.03,South,173,0.0,0.0,73,0.00,,,0.00,0.0,WUHU216DAVISVP2,2014-04-05 02:30:00,
2014-04-04 22:35:00,75.0,65.9,30.03,South,173,0.0,0.0,73,0.00,,,0.00,0.0,WUHU216DAVISVP2,2014-04-05 02:35:00,
2014-04-04 22:40:00,74.9,66.2,30.03,South,173,0.0,0.0,74,0.00,,,0.00,0.0,WUHU216DAVISVP2,2014-04-05 02:40:00,
2014-04-04 22:45:00,74.8,66.0,30.04,South,173,0.0,0.0,74,0.00,,,0.00,0.0,WUHU216DAVISVP2,2014-04-05 02:45:00,
2014-04-04 22:50:00,74.6,65.9,30.04,South,173,0.0,0.0,74,0.00,,,0.00,0.0,WUHU216DAVISVP2,2014-04-05 02:50:00,
2014-04-04 22:55:00,74.5,65.8,30.03,South,173,0.0,0.0,74,0.00,,,0.00,0.0,WUHU216DAVISVP2,2014-04-05 02:55:00,
2014-04-04 23:00:00,74.3,65.6,30.03,South,173,0.0,0.0,74,0.00,,,0.00,0.0,WUHU216DAVISVP2,2014-04-05 03:00:00,
2014-04-04 23:05:00,74.1,65.4,30.03,South,173,0.0,0.0,74,0.00,,,0.00,0.0,WUHU216DAVISVP2,2014-04-05 03:05:00,
2014-04-04 23:10:00,74.0,65.3,30.03,South,173,0.0,0.0,74,0.00,,,0.00,0.0,WUHU216DAVISVP2,2014-04-05 03:10:00,
2014-04-04 23:15:00,74.0,65.7,30.04,South,173,0.0,0.0,75,0.00,,,0.00,0.0,WUHU216DAVISVP2,2014-04-05 03:15:00,
2014-04-04 23:20:00,73.9,65.6,30.04,South,173,0.0,0.0,75,0.00,,,0.00,0.0,WUHU216DAVISVP2,2014-04-05 03:20:00,
2014-04-04 23:25:00,73.7,65.4,30.04,South,173,0.0,0.0,75,0.00,,,0.00,0.0,WUHU216DAVISVP2,2014-04-05 03:25:00,
2014-04-04 23:30:00,73.5,65.2,30.04,South,173,0.0,0.0,75,0.00,,,0.00,0.0,WUHU216DAVISVP2,2014-04-05 03:30:00,
2014-04-04 23:35:00,73.4,65.5,30.04,South,173,0.0,0.0,76,0.00,,,0.00,0.0,WUHU216DAVISVP2,2014-04-05 03:35:00,
2014-04-04 23:40:00,73.2,65.7,30.04,South,173,0.0,0.0,77,0.00,,,0.00,0.0,WUHU216DAVISVP2,2014-04-05 03:40:00,
2014-04-04 23:45:00,73.1,65.6,30.04,South,173,0.0,0.0,77,0.00,,,0.00,0.0,WUHU216DAVISVP2,2014-04-05 03:45:00,
2014-04-04 23:50:00,73.0,65.5,30.03,South,173,0.0,0.0,77,0.00,,,0.00,0.0,WUHU216DAVISVP2,2014-04-05 03:50:00,
2014-04-04 23:56:00,72.9,65.6,30.04,South,173,0.0,0.0,78,0.00,,,0.00,0.0,WUHU216DAVISVP2,2014-04-05 03:56:00,